STARLINK-31923 (60600 NORAD) Tracking and Keplerian Element Data

This shows tracking and keplerian element data for the satellite.

Feedback or suggestion? Click here.




ElementValue
Catalog60600
NameSTARLINK-31923
Epoch Orbit944
Epoch Day286.41206417
Epoch Year2024
RAAN172.0447
Inclination53.1595
Eccentricity0.0001207
Argument of Perigee76.1358
Mean Anonmoly283.9781
Mean Motion15.39609143
Decay Rate-5.236E-05
L11 60600U 24150T 24286.41206417 -.00005236 00000+0 -12106-3 0 9991
L22 60600 53.1595 172.0447 0001207 76.1358 283.9781 15.39609143 9443



Live tracking and technical data element details for STARLINK-31923 (NORAD 60600). STARLINK-31923 can be tracked NOW for your location showing map with azimuth and elevation plus other details from your city location.







IsCatalogInMostPopularTable: catalog: 60600, numindb: 9
Update: records affected: 1



GetName: 60600 STARLINK-31923

Hit Count: updated at: Tue, 03 Dec 2024 03:05:51 GMT